Location: *
(51.8167°N, 12.5000°E)
Time: 22:53:43
(UTC+00:00)

Cosmos 2227 Rocket - Pass Details

Date: 16 September 2019
Orbit: 837 x 847 km, 71.0° (Epoch: 17 October)

Event Time Altitude Azimuth Distance (km) Brightness Sun altitude
Exits shadow 19:38:51 36° 153° (SSE) 1,318 2.7 -20.5°
Maximum altitude 19:40:32 46° 110° (ESE) 1,126 2.4 -20.7°
Drops below altitude 10° 19:45:55 10° 39° (NE) 2,476 4.6 -21.4°
Sets 19:48:27 0° 34° (NE) 3,417 5.4 -21.7°
